Theta_e
326 315 314 318 312 313 311 304 299 296 294 291 286 293 294 293 294 295 295 297 299 299 296 301 307 307 306 306 307 305 304 309 306 303 302 312 325 336 337 335 340 342 342 344 346 347 348 346 347 347 346 346 346 346 346 345 344 342 341 341 341 339 339 340 339 340 341 343 345 345 343 342 340 338 337 339 340 339 339 339 340 342 343 343 342 342 343 341 341 341 340 340 339 339 340 339 340
316 314 316 314 316 315 309 298 292 289 289 288 290 287 291 291 295 295 296 296 298 301 302 309 310 309 308 308 308 311 308 313 306 317 320 326 335 336 337 337 341 340 342 344 346 346 347 347 347 347 346 346 346 346 345 344 344 343 342 342 342 340 339 340 339 340 343 343 343 345 343 341 341 339 338 340 340 340 339 341 341 341 341 342 341 342 345 344 343 343 343 342 341 341 340 340 340
316 315 320 315 314 307 304 301 299 285 287 289 288 290 291 293 294 294 296 294 296 306 308 309 306 304 305 304 304 303 303 318 313 321 326 334 330 332 337 339 341 341 343 344 345 346 346 346 345 347 347 346 346 345 345 344 343 342 341 340 341 340 339 339 340 340 343 345 345 345 343 341 338 337 338 340 340 341 341 340 341 342 343 343 342 343 343 343 343 343 342 342 341 341 341 340 341
317 315 314 314 313 305 298 291 289 289 288 286 285 289 290 293 294 295 294 293 306 303 300 304 307 305 305 301 302 313 313 317 323 326 325 329 332 336 337 338 340 342 343 344 345 346 346 345 345 347 346 346 346 346 346 345 344 344 343 342 340 339 340 340 340 339 342 342 344 344 344 341 338 342 338 339 340 339 338 339 340 342 341 341 341 342 342 341 342 341 340 340 340 340 340 340 340
315 318 312 309 307 305 294 288 286 287 290 286 290 289 291 291 296 292 299 298 304 295 299 303 306 308 308 307 308 305 307 320 323 327 329 332 338 338 338 339 340 341 342 343 344 345 347 343 345 347 346 346 346 345 345 345 343 343 342 342 340 339 340 340 340 340 342 342 343 344 344 340 338 337 339 338 338 339 339 338 339 339 340 340 340 340 340 340 342 341 341 341 341 340 340 340 339
312 310 309 311 306 303 295 292 291 292 291 288 289 292 290 292 295 296 300 299 303 296 298 301 306 306 309 311 312 310 313 316 325 326 331 332 337 339 338 339 339 340 342 343 345 345 347 341 343 346 346 346 346 346 345 345 345 343 343 342 341 341 340 340 339 340 342 342 343 344 343 341 339 339 338 338 337 337 337 337 338 340 339 340 340 341 340 339 339 341 340 340 340 340 339 339 339
316 306 305 306 300 300 296 288 288 286 291 289 293 292 293 293 296 299 298 301 298 300 295 304 304 304 304 305 312 315 318 321 326 326 333 334 338 338 338 338 339 339 342 343 344 344 346 342 345 347 347 346 346 345 345 345 345 343 343 342 341 339 339 339 340 339 339 340 343 342 343 342 340 338 338 337 336 336 337 337 337 340 341 340 339 340 340 340 339 339 339 340 339 339 338 339 339
312 312 304 298 293 291 288 285 287 287 292 289 291 292 292 295 295 301 298 297 297 299 301 302 299 301 301 309 310 316 314 320 325 324 325 338 338 337 338 338 338 339 341 343 344 344 344 341 344 346 346 346 345 345 345 345 344 343 343 342 342 340 340 339 339 339 338 340 340 342 342 342 341 339 338 337 336 336 335 334 339 341 341 340 340 339 339 340 340 340 340 340 339 338 338 338 338
306 306 301 299 291 287 285 289 290 287 288 288 290 291 302 295 296 299 296 294 297 298 303 305 299 300 299 307 306 314 318 319 320 322 330 337 336 337 337 337 337 338 340 342 343 345 346 339 343 345 345 346 346 345 345 345 344 343 343 342 342 341 340 339 339 338 339 339 342 342 342 341 341 339 338 337 336 335 335 334 338 338 338 338 339 339 339 339 339 339 339 339 339 338 338 338 337
306 305 298 295 291 292 284 288 291 292 291 292 293 296 294 293 294 295 295 295 297 301 305 297 298 299 301 306 309 315 322 318 320 328 335 337 337 337 337 338 339 339 340 342 343 344 345 344 340 343 344 345 346 346 345 345 344 344 343 343 341 340 339 338 339 338 338 340 341 341 341 340 340 339 337 336 335 335 334 334 334 338 338 338 338 338 337 338 338 339 339 338 338 338 337 337 336
301 299 297 295 286 286 289 289 285 287 292 290 291 292 294 293 294 291 294 296 295 302 299 297 302 301 304 304 308 314 316 318 326 328 334 336 337 336 337 338 339 340 340 341 343 344 344 345 341 340 341 343 344 346 345 345 344 343 342 342 341 340 339 339 338 338 337 337 341 341 340 340 339 338 337 336 335 334 333 333 334 335 337 336 337 337 337 337 337 338 337 338 337 337 337 337 336
299 297 295 287 287 290 287 287 288 287 289 290 296 295 294 294 293 295 295 298 296 296 300 299 302 303 301 299 308 316 315 322 326 332 334 336 336 337 337 338 338 340 341 342 343 343 344 345 345 341 338 340 340 342 343 343 344 343 342 342 341 340 339 339 338 338 337 336 336 339 339 339 339 338 336 335 335 335 333 333 333 335 336 337 337 336 336 335 336 336 336 336 336 336 336 336 335
297 295 293 291 290 288 286 287 291 294 288 291 296 295 293 294 297 294 294 295 294 297 298 299 301 301 298 301 305 308 319 325 323 330 333 335 335 337 338 337 338 339 340 342 341 342 343 344 345 345 340 335 336 337 338 340 341 342 342 341 341 340 339 338 338 337 337 340 339 338 337 338 338 336 335 334 336 335 332 335 334 336 337 336 335 335 335 334 334 336 335 335 335 335 335 334 334
298 296 295 292 285 285 286 289 286 292 291 294 291 292 293 295 295 292 295 296 294 297 298 296 303 300 301 299 302 308 318 322 323 328 332 335 335 336 336 337 337 338 340 341 341 342 343 343 344 344 342 343 344 338 334 336 338 340 340 340 340 339 339 338 338 338 338 337 336 335 335 335 336 336 335 335 335 335 335 335 336 334 335 334 335 335 335 334 333 334 335 334 334 334 334 334 333
302 294 290 286 284 288 286 291 290 287 293 291 294 293 293 295 291 291 298 296 296 295 297 301 304 298 296 297 295 304 317 322 324 327 332 333 335 336 336 336 336 337 339 340 341 341 342 342 343 343 342 343 342 343 343 341 334 336 337 337 337 338 337 335 334 334 333 332 332 331 331 330 330 330 331 331 332 332 332 332 334 334 334 334 334 334 334 333 333 333 333 333 333 333 333 332 331
299 294 290 289 288 287 289 286 283 288 292 290 291 291 294 293 290 295 295 297 297 298 298 302 306 300 300 299 308 300 311 321 325 330 332 332 334 335 335 335 335 336 338 339 340 341 341 341 342 341 341 342 342 342 341 342 333 332 334 335 334 334 333 331 330 329 326 326 326 326 325 328 327 327 324 327 326 329 328 330 332 334 334 334 334 333 333 333 332 332 332 332 331 331 330 329 328
299 297 291 286 289 287 289 288 289 291 290 289 289 293 297 294 293 293 293 295 298 298 298 303 305 310 298 297 309 312 313 322 326 331 331 331 332 332 333 333 333 334 336 337 339 340 340 340 340 341 341 342 342 341 341 340 337 331 332 329 329 329 328 327 325 322 321 320 322 321 322 328 328 328 327 328 323 329 321 323 330 333 334 334 333 333 332 331 331 331 330 331 329 327 324 323 323
297 293 288 290 287 286 289 290 291 291 292 291 289 292 296 292 293 297 296 297 294 296 299 298 303 309 313 315 314 314 314 324 328 330 329 329 331 330 330 331 332 331 333 335 338 339 339 340 340 340 340 341 341 341 341 340 338 335 337 336 334 329 325 324 326 327 324 326 320 324 327 326 326 326 326 324 328 328 326 322 326 330 333 333 332 331 331 330 329 329 328 326 323 320 317 319 318
293 289 292 292 286 289 291 290 293 292 295 291 291 289 294 295 293 295 295 293 294 297 297 296 301 303 308 313 313 314 319 324 328 329 329 329 329 329 329 330 331 331 331 333 336 338 339 339 339 339 340 341 340 340 340 339 338 337 335 334 332 327 326 326 326 325 326 325 325 325 325 326 325 325 324 324 324 318 322 320 324 328 330 330 329 329 328 327 327 326 324 321 319 316 316 316 316
293 293 292 287 290 289 290 291 293 290 291 291 291 290 292 294 293 294 296 292 293 295 295 295 297 300 304 310 315 318 322 323 327 329 328 329 330 330 330 330 330 331 332 333 334 337 338 338 338 339 339 340 340 339 339 339 338 337 335 333 331 328 327 326 325 325 325 325 325 325 325 324 324 323 319 318 319 322 320 317 318 319 321 322 322 325 325 324 323 320 318 316 314 313 314 314 314
295 291 287 293 289 293 292 288 290 288 290 291 290 289 292 292 292 295 292 295 293 293 293 299 298 298 302 311 315 320 321 323 326 328 328 328 330 331 332 331 332 333 333 334 334 335 337 337 338 338 339 339 340 339 338 338 338 337 335 333 331 329 326 325 324 324 324 324 324 324 324 324 323 321 320 320 319 318 318 318 319 319 320 318 316 316 314 313 313 313 312 311 311 312 312 313 313
292 292 291 290 289 292 291 288 288 288 288 290 288 293 293 292 293 291 294 293 294 296 298 296 298 299 307 311 315 320 321 322 324 326 327 327 327 328 331 332 333 335 334 332 333 334 336 337 338 338 338 338 339 339 339 338 337 336 334 332 331 329 326 325 324 323 323 324 324 324 323 323 321 319 318 317 316 316 316 315 315 315 316 315 315 313 311 311 311 311 311 310 309 309 309 310 311
296 290 288 289 288 292 290 288 288 288 289 290 290 293 292 293 293 289 292 296 294 293 294 294 295 300 310 314 317 319 320 321 323 324 326 326 327 328 329 331 331 332 332 333 334 335 336 337 337 338 337 338 339 340 339 337 338 337 335 333 331 329 326 324 324 323 323 323 323 323 323 322 321 318 316 315 314 314 313 313 313 313 312 312 312 311 310 309 310 310 309 308 308 307 307 308 308
291 292 288 292 289 292 288 290 286 286 290 291 290 291 293 290 294 290 291 293 294 291 291 289 293 312 314 314 316 319 320 321 322 324 326 327 327 328 329 329 331 333 332 334 334 335 334 335 337 337 337 338 338 340 339 337 338 337 335 331 331 328 326 325 324 324 324 323 322 323 322 322 320 318 315 314 312 312 311 310 310 310 310 309 310 310 308 308 308 308 308 308 307 306 305 306 306
293 290 289 290 289 289 286 285 285 286 288 288 289 293 291 290 291 289 292 295 294 292 300 305 310 311 313 314 315 318 319 321 321 323 325 326 327 328 330 331 332 332 331 332 334 335 335 336 336 336 337 337 338 339 337 338 338 337 334 332 332 326 328 326 324 324 324 323 323 322 322 321 320 318 315 312 311 310 308 309 309 308 308 308 308 307 308 307 308 307 307 307 306 306 305 305 305
290 291 289 289 291 289 289 289 287 287 289 288 292 290 290 289 290 292 294 291 291 295 304 306 308 310 310 312 314 316 317 319 321 321 323 325 326 326 327 329 330 330 331 332 332 334 336 337 336 336 336 337 338 338 338 337 337 337 334 333 333 327 329 326 325 324 324 323 322 322 322 321 320 318 315 312 311 308 307 307 307 307 306 306 307 307 307 307 306 306 306 306 305 305 304 303 304
289 289 289 290 289 290 289 290 289 288 289 288 291 290 291 291 290 291 290 288 292 299 300 302 306 307 309 312 314 315 316 317 319 322 322 323 324 325 326 328 328 329 331 331 332 332 334 336 336 336 336 336 338 337 338 337 337 336 334 334 332 330 329 326 325 324 324 323 323 322 321 321 320 318 315 312 311 308 307 307 306 305 305 305 306 305 305 306 306 305 305 305 304 304 303 303 303
291 290 290 289 288 289 289 290 289 290 293 287 290 290 290 291 290 291 292 289 290 296 297 300 300 303 308 311 312 314 315 317 318 319 319 319 321 323 325 325 327 328 329 330 332 332 331 334 336 336 337 336 336 337 337 338 338 338 334 334 331 331 329 327 325 324 322 323 323 322 322 321 320 318 315 312 310 308 306 305 304 304 304 304 304 304 304 304 304 304 303 303 302 302 302 301 300
289 291 290 289 286 290 289 291 290 290 292 291 290 292 290 290 291 291 290 289 293 295 298 298 299 300 303 308 311 313 314 315 316 317 318 320 322 324 323 326 327 327 329 330 331 331 331 332 334 335 336 336 336 336 336 337 337 337 336 335 332 331 330 329 327 325 325 324 323 322 322 321 320 319 316 313 310 308 306 304 303 304 303 303 303 303 303 302 302 302 302 302 301 301 301 300 300
289 288 288 287 288 286 291 288 289 292 292 288 290 287 286 290 294 292 288 288 292 294 294 298 299 299 299 301 306 309 313 314 314 316 317 319 320 322 322 324 327 328 328 328 329 329 331 332 332 334 333 333 333 335 335 336 336 336 335 337 334 332 330 328 327 327 325 324 324 323 322 321 320 320 318 314 311 309 306 304 303 302 302 302 302 302 301 301 301 301 301 301 300 300 300 299 298
291 288 285 283 287 285 288 289 290 293 292 287 290 287 284 283 285 286 287 289 293 293 294 293 295 296 296 297 301 305 308 312 314 316 317 317 317 319 320 322 323 326 326 326 327 328 329 330 330 331 331 333 331 333 333 335 335 336 335 335 334 332 330 329 328 327 326 326 324 323 323 322 320 320 319 316 313 311 307 305 304 304 303 302 302 302 302 301 301 301 301 301 300 299 298 298 297
282 288 284 283 285 285 286 289 287 291 292 289 290 287 288 288 289 287 286 288 290 292 291 291 291 293 294 294 296 300 304 307 310 312 314 316 317 317 317 318 320 322 324 325 326 326 327 329 328 329 330 331 330 331 332 333 334 334 334 329 333 332 331 330 328 327 326 327 325 323 323 323 321 321 320 318 314 312 309 307 305 304 303 303 303 302 302 301 302 302 302 301 299 298 297 296 297
280 283 281 284 282 282 284 290 286 289 291 290 290 287 283 289 289 289 287 289 289 291 290 289 289 290 291 292 294 295 297 298 300 304 309 312 314 316 317 317 317 319 321 323 323 324 324 326 326 327 327 329 330 329 329 330 331 333 333 331 332 332 332 332 330 328 326 326 326 324 323 323 322 321 320 318 315 313 310 308 305 302 301 302 302 301 301 302 301 301 300 300 301 298 296 294 293
286 281 282 281 282 283 284 286 289 289 290 290 289 288 285 289 288 287 286 290 289 290 292 291 290 290 291 291 291 293 294 296 297 299 301 307 311 314 316 315 316 317 317 319 322 322 322 323 324 326 328 328 329 330 328 327 328 330 331 332 328 328 329 332 331 329 328 327 326 325 324 323 321 321 319 317 315 313 311 309 305 301 301 301 301 301 300 300 301 300 298 299 298 297 294 293 292
283 284 282 284 281 281 283 286 287 289 288 289 288 287 290 291 292 292 289 289 290 291 291 292 291 291 292 291 291 292 293 294 296 298 299 300 304 309 312 314 315 316 316 317 318 319 320 321 321 321 324 326 327 327 327 326 326 326 328 328 328 328 325 324 328 329 329 328 327 327 326 323 321 321 319 317 315 314 312 308 304 301 301 302 301 300 300 300 301 301 299 298 298 298 297 296 293
287 287 285 282 284 284 283 282 283 287 287 287 286 289 290 290 291 292 290 288 289 290 288 288 289 289 290 291 292 293 294 294 297 297 297 297 300 303 306 310 313 314 315 316 316 317 317 318 319 320 321 324 324 324 323 323 322 324 324 322 324 324 324 322 323 325 324 326 327 327 327 325 322 320 320 318 316 314 312 309 305 302 301 302 301 300 300 300 300 300 299 297 296 295 294 293 291
285 284 282 283 282 283 283 283 286 285 287 287 286 285 284 288 290 292 292 290 289 290 291 292 292 292 292 292 292 293 294 296 298 296 297 297 297 298 302 305 308 311 313 314 315 315 316 317 317 317 320 321 320 320 319 320 319 319 321 323 323 324 322 322 322 322 322 324 324 326 326 326 323 321 319 318 316 313 314 310 305 302 301 301 301 301 301 301 301 301 298 296 294 292 292 293 292
287 284 283 283 284 285 285 287 286 284 288 285 282 284 288 289 291 291 291 289 291 292 292 291 292 293 293 293 293 293 294 294 294 296 295 293 295 296 297 301 304 306 308 312 314 315 316 316 316 318 317 318 320 321 320 320 322 322 322 322 323 323 321 320 321 320 320 320 320 320 321 325 325 323 321 320 318 316 314 309 305 302 302 301 301 302 301 299 299 298 297 294 294 293 292 292 292
281 284 282 283 283 281 285 286 286 286 288 284 282 285 288 289 290 291 290 291 291 291 292 293 293 293 293 292 293 293 292 294 292 293 293 294 295 295 296 299 303 305 307 310 313 314 314 315 316 317 316 317 318 320 320 320 320 320 322 319 322 319 320 323 323 320 319 319 318 318 317 318 320 321 322 319 319 316 314 311 307 304 302 302 302 301 300 300 300 298 296 295 293 295 293 292 292
282 281 282 282 281 285 285 286 286 286 285 288 286 286 289 288 287 288 291 291 290 289 289 290 290 292 293 293 292 292 292 292 292 293 293 293 293 293 296 298 300 304 305 307 310 312 313 314 315 315 315 316 317 317 317 319 318 312 308 311 314 317 316 312 314 308 312 313 315 313 313 315 317 319 320 320 318 318 316 314 311 306 301 301 301 300 299 299 299 298 297 297 296 291 291 290 292
283 283 280 281 283 283 281 284 283 282 284 283 285 285 287 282 287 291 287 283 284 286 285 287 289 290 292 292 291 291 292 293 293 294 293 292 291 292 294 297 300 302 304 306 308 311 313 314 315 315 315 315 316 315 315 313 309 308 307 307 308 309 309 311 314 313 312 311 312 313 315 313 315 317 317 319 318 318 316 313 308 305 303 302 302 302 300 299 298 298 297 296 295 295 291 292 291
285 283 283 283 285 285 282 284 285 281 286 283 285 284 279 279 279 283 286 283 287 285 287 290 291 288 287 288 290 291 292 293 294 294 294 293 292 292 294 297 300 302 304 306 308 310 312 312 312 313 313 313 313 313 313 311 312 312 310 312 310 309 311 309 311 313 313 313 315 317 313 313 314 314 315 316 317 316 316 313 309 306 304 302 302 302 301 299 298 297 297 297 295 297 295 292 291
283 285 284 283 284 284 283 283 283 281 281 284 281 283 277 280 282 285 281 282 285 287 286 289 289 288 287 288 289 288 289 289 289 290 291 291 292 292 293 296 300 302 304 305 306 308 310 310 311 311 312 311 312 311 311 311 312 312 313 315 315 314 314 313 313 314 316 315 316 314 314 311 312 313 314 315 315 315 315 313 310 307 306 304 302 302 300 300 299 298 297 297 296 296 295 291 291
284 284 283 284 285 285 284 284 282 280 280 284 279 278 279 280 285 282 281 282 285 286 289 290 289 284 285 285 286 286 287 287 288 289 290 290 290 291 293 295 299 302 302 303 305 306 308 308 309 310 310 310 310 310 309 311 313 312 312 313 314 314 314 314 310 311 310 311 312 313 311 310 310 311 312 313 314 314 313 313 311 308 306 305 302 302 302 301 299 298 297 297 297 296 295 294 292
283 283 284 285 286 284 282 283 281 281 282 281 278 285 281 277 282 281 281 288 287 287 288 289 287 286 285 286 287 287 287 286 286 288 290 290 291 291 292 294 297 299 301 304 305 306 307 307 307 307 308 308 307 308 309 309 312 312 312 312 311 311 311 309 305 305 308 307 310 308 311 311 309 309 310 311 312 313 312 312 311 309 307 305 301 302 302 300 299 297 296 296 296 295 295 296 295
284 283 283 282 281 281 281 280 283 278 278 276 280 281 279 280 280 281 281 286 285 287 289 288 287 287 286 287 288 288 289 289 288 288 289 290 292 292 293 294 296 299 299 301 301 303 304 305 305 305 306 307 306 306 307 308 309 309 310 309 310 310 306 304 304 304 304 303 307 305 307 308 309 309 308 310 311 312 312 312 311 309 307 306 302 303 302 300 299 298 297 296 296 297 296 295 294
285 284 287 284 281 279 278 277 276 277 275 276 277 277 280 278 281 284 286 286 287 288 286 284 287 285 286 286 287 289 289 290 290 289 289 290 290 291 291 295 297 296 297 299 301 303 303 304 305 305 306 305 304 305 306 306 307 307 309 309 309 309 306 305 303 301 301 300 303 303 304 306 305 307 307 307 308 310 311 311 310 309 308 306 303 303 303 301 299 298 298 296 296 296 296 294 295
285 283 281 285 283 278 277 271 275 273 270 272 275 278 277 277 278 281 282 282 282 285 288 291 289 287 288 288 288 288 288 289 289 289 290 289 293 294 295 296 296 295 296 298 299 300 302 303 303 304 302 303 302 304 304 305 306 306 307 308 308 308 307 305 305 305 302 302 302 302 302 302 302 303 304 305 306 307 308 309 310 309 307 306 304 303 303 302 301 299 298 296 295 296 296 294 294
283 283 285 281 271 270 275 271 275 274 271 278 277 277 278 280 282 283 281 285 285 283 287 288 286 287 287 288 289 287 288 288 288 289 289 289 291 293 295 295 294 296 298 298 299 300 301 301 302 303 302 301 302 302 303 304 304 305 305 306 306 306 306 305 305 305 303 303 302 302 301 301 301 301 302 303 305 305 307 307 308 308 307 306 305 304 303 302 301 299 298 297 296 295 295 294 293
283 285 280 276 270 269 268 264 263 268 272 276 279 277 277 279 282 286 290 290 287 286 285 286 287 288 289 289 288 287 288 287 288 288 288 288 289 290 291 293 294 295 296 296 297 298 299 300 300 302 303 301 301 301 302 302 303 305 305 305 306 305 304 304 305 305 304 304 303 303 302 302 301 302 302 302 304 304 306 307 308 308 308 307 306 305 303 303 301 300 298 297 296 296 296 295 294
284 283 286 282 272 267 269 265 273 272 272 273 275 275 275 277 284 286 286 287 286 285 284 284 285 285 285 286 286 285 287 289 288 288 290 290 290 290 291 292 293 294 294 295 296 297 297 299 299 300 301 299 299 300 301 301 303 303 303 304 304 304 304 304 304 304 304 303 303 303 303 303 303 302 302 303 303 303 305 306 307 307 307 306 305 304 303 303 302 301 299 298 297 297 296 295 295
282 280 283 281 281 277 271 265 267 264 271 271 274 275 277 281 283 286 287 286 286 286 285 285 287 288 286 287 287 287 287 288 289 289 289 289 290 289 289 290 292 293 294 295 296 296 297 299 299 300 302 300 299 299 300 301 302 302 302 302 302 302 302 303 303 302 303 304 303 303 303 302 302 303 303 303 303 303 304 305 306 306 306 306 305 304 304 303 302 301 300 298 297 296 295 294 294
284 283 277 281 281 279 271 269 272 271 269 272 270 277 281 281 284 291 282 283 287 286 284 284 286 287 286 288 288 287 288 287 288 289 290 291 290 290 290 291 291 292 293 296 297 297 299 299 298 299 299 298 298 299 300 300 300 300 300 300 301 301 301 302 302 302 302 302 303 303 303 302 302 302 302 302 303 303 303 304 305 306 306 306 305 304 304 303 302 300 299 298 297 297 295 294 294
284 279 282 283 283 282 279 275 268 265 270 272 272 276 278 277 281 283 283 286 287 285 286 284 284 284 286 289 288 289 290 289 288 288 290 290 291 291 291 291 291 293 295 295 296 296 298 298 299 299 299 298 298 298 299 299 299 299 299 299 300 300 301 301 302 302 302 301 301 302 302 301 301 301 302 302 302 302 302 301 304 304 305 306 305 304 303 302 301 300 300 299 299 298 296 295 294
284 282 285 286 280 279 277 275 269 268 267 266 269 273 274 278 282 281 284 285 288 288 285 285 287 286 288 286 286 287 286 287 287 289 290 289 290 290 290 291 291 291 293 294 295 295 296 296 297 298 299 299 299 298 298 299 299 299 299 299 299 299 300 300 301 301 301 301 301 301 301 301 301 301 300 301 301 301 300 300 301 302 303 304 304 304 303 302 301 300 300 299 298 297 296 295 295
285 286 284 285 282 277 275 277 273 274 268 265 269 269 280 279 280 281 288 282 285 284 284 286 287 288 287 286 288 290 292 292 291 288 289 290 290 290 290 291 291 291 292 293 294 294 295 296 296 297 297 296 296 297 297 297 298 298 298 298 298 299 299 299 299 300 300 300 300 300 300 300 301 300 300 300 300 299 299 299 299 300 300 302 303 303 302 301 301 300 299 297 296 295 295 295 295
281 281 281 284 278 281 281 276 273 275 267 265 265 269 273 279 281 283 288 288 284 283 285 285 285 285 285 288 290 289 288 291 292 291 288 290 291 289 289 289 289 289 290 291 293 295 296 295 296 296 297 297 296 296 296 297 297 297 297 297 298 297 297 298 298 298 299 300 300 299 300 300 299 298 298 298 298 298 299 299 299 298 299 299 300 300 300 300 299 298 298 297 296 295 294 295 294
285 284 282 285 281 279 277 277 275 266 273 266 264 273 274 282 281 286 287 286 282 282 285 287 285 283 286 288 287 286 290 289 290 288 286 289 290 290 289 287 287 289 289 290 292 292 293 295 296 296 296 296 297 296 296 296 296 297 296 297 297 297 297 297 297 298 298 298 298 298 298 297 298 298 297 298 297 298 298 298 298 298 298 298 299 300 298 297 297 296 296 297 296 295 294 294 294
Wind_Speed
6 5 2 1 4 3 2 7 2 3 3 1 1 1 2 0 2 3 1 1 3 1 3 2 7 6 3 4 7 4 1 8 5 5 2 0 2 5 6 6 10 11 10 7 6 5 5 5 10 11 12 12 11 11 12 12 12 12 12 13 12 12 13 12 10 10 13 13 16 16 17 17 17 16 15 18 17 17 16 16 15 18 18 17 16 18 18 19 20 20 19 19 18 19 19 19 19
3 4 3 1 2 2 2 2 5 3 6 3 3 1 3 2 2 5 9 6 3 2 4 4 6 7 6 5 7 6 3 2 5 1 0 2 4 7 5 9 12 13 9 8 7 4 4 6 9 11 12 12 11 11 12 12 12 11 12 12 13 12 12 12 12 12 14 13 13 16 16 17 16 15 16 17 17 16 16 17 16 14 15 16 17 19 20 18 19 21 20 20 19 18 18 18 18
4 5 1 3 4 4 3 4 1 1 4 1 3 6 3 4 5 5 7 2 2 2 5 5 4 3 2 1 1 1 2 1 2 4 3 4 10 8 6 9 12 12 11 8 8 6 3 6 8 11 12 11 11 11 11 12 11 11 12 12 12 13 11 11 11 11 12 13 13 13 16 17 16 17 15 17 17 16 15 16 16 16 19 17 17 19 19 19 19 19 20 19 18 18 19 18 19
3 5 4 3 1 3 1 5 4 7 3 4 1 3 6 7 7 7 5 1 6 5 2 3 5 1 1 2 1 4 2 1 4 3 5 7 4 8 7 9 11 10 9 7 8 5 4 5 8 10 11 11 11 11 11 11 12 12 11 12 12 12 11 10 10 12 12 13 14 14 13 16 14 18 17 16 16 16 16 15 15 15 16 17 18 18 17 18 18 19 18 18 18 18 18 18 18
2 2 2 3 3 1 4 2 4 3 2 5 2 3 6 6 6 5 2 6 5 1 3 3 4 3 0 2 2 2 2 1 4 2 3 2 2 7 8 10 10 10 9 9 8 6 4 6 7 9 11 11 11 11 11 11 11 11 12 11 11 11 11 11 10 11 12 11 13 14 13 16 15 15 17 16 15 15 14 14 14 14 15 16 17 17 17 18 18 18 18 18 18 18 18 18 19
4 3 4 2 0 3 5 2 3 2 4 7 1 2 7 7 8 7 7 5 4 3 1 3 1 5 1 2 2 1 3 4 3 2 5 3 7 7 10 9 9 9 9 9 8 7 4 6 7 9 11 11 11 10 10 11 11 11 11 12 11 11 10 9 10 12 12 12 13 15 14 14 15 15 16 15 15 14 14 13 14 15 14 15 16 17 17 16 16 17 17 18 18 18 18 18 19
1 4 4 3 3 3 3 4 4 4 1 4 0 2 8 7 5 11 5 2 1 2 2 2 3 4 3 2 1 3 1 0 3 1 4 4 7 8 9 8 9 10 9 8 8 7 6 7 7 9 9 11 11 10 10 10 11 11 11 12 12 11 10 11 11 11 10 12 14 13 14 12 15 15 15 14 15 14 14 13 13 14 15 15 15 16 15 15 15 16 17 17 17 17 18 18 19
2 1 2 3 1 4 3 2 1 5 2 5 0 3 4 8 7 7 9 3 3 3 2 1 1 2 1 1 3 0 2 2 2 4 0 7 7 9 9 9 9 10 9 7 7 5 7 7 6 8 9 11 10 10 10 10 10 11 11 12 11 11 11 11 11 10 10 11 11 14 14 13 13 15 14 14 13 13 13 13 15 15 15 15 15 15 16 16 16 16 17 17 17 17 17 17 18
5 6 0 5 4 4 3 1 1 3 6 2 5 5 3 5 6 10 7 2 1 0 4 5 4 2 3 2 2 1 3 1 3 3 3 8 10 10 7 9 9 9 9 7 6 8 7 6 7 8 9 10 10 10 10 10 10 10 11 12 12 11 11 11 11 10 11 12 13 14 13 14 13 14 13 13 13 13 13 13 14 14 14 14 15 15 15 15 15 16 17 17 17 17 17 17 18
2 1 1 2 4 1 2 1 1 2 1 1 2 1 5 6 6 3 8 1 2 4 3 1 2 0 3 2 1 1 2 3 2 5 7 9 10 9 8 8 9 11 9 6 7 8 6 6 7 7 8 9 9 10 11 10 10 10 11 12 12 12 11 11 11 11 10 13 12 13 14 13 14 14 13 12 12 12 12 12 13 14 14 15 15 15 15 15 16 16 16 16 16 17 17 17 17
1 5 2 4 5 2 1 1 4 4 1 4 5 6 5 4 5 5 1 2 1 3 2 1 1 4 2 1 2 2 4 2 6 8 7 10 10 9 8 7 8 10 10 8 8 8 8 7 7 7 7 8 8 9 10 9 11 10 10 11 12 12 11 11 11 11 9 11 13 12 13 13 14 14 13 12 11 11 12 11 13 13 13 13 13 14 14 15 15 16 16 16 17 17 17 18 18
1 1 2 4 1 3 2 3 1 5 6 2 2 1 4 7 4 3 2 6 3 1 4 6 1 8 4 2 1 1 5 2 5 7 6 9 9 9 8 6 8 9 9 10 8 7 7 6 6 6 7 7 8 9 9 9 9 10 10 11 12 11 11 12 11 11 10 8 9 12 13 13 13 14 12 11 9 9 11 11 12 13 14 14 14 14 14 14 15 16 16 16 17 17 18 18 17
2 1 6 6 1 1 1 1 0 2 4 3 4 1 5 5 5 6 5 2 2 5 3 9 2 1 2 3 2 5 2 5 5 6 6 8 7 6 7 7 8 8 8 8 9 8 8 6 6 6 6 7 7 8 8 8 9 9 9 10 10 11 11 11 11 11 10 10 11 12 11 10 12 12 12 10 8 8 11 10 12 14 14 13 14 14 14 13 14 15 15 17 17 18 18 18 18
4 5 4 1 1 4 3 1 1 2 2 2 2 2 5 2 3 7 8 6 3 5 1 2 3 3 1 2 1 2 5 5 6 6 5 7 6 7 8 7 8 8 8 8 8 8 7 6 6 5 5 6 7 6 7 8 8 9 9 9 8 8 9 10 10 11 10 10 10 10 10 11 10 9 10 8 6 7 8 8 11 12 13 13 14 14 14 14 14 15 15 16 16 16 17 17 18
2 2 6 5 2 1 2 3 5 4 4 2 3 8 3 2 4 5 7 6 6 2 1 0 2 2 4 7 3 6 6 7 7 6 6 7 7 8 8 7 7 8 8 8 8 8 7 6 6 5 5 5 6 4 4 7 9 9 9 9 8 8 9 10 10 9 11 11 11 11 11 11 10 10 9 9 8 7 8 10 11 10 12 13 14 14 14 14 14 14 15 15 16 16 17 16 18
5 5 5 3 1 3 2 2 1 4 3 5 1 1 5 1 2 6 5 1 2 0 0 3 0 1 1 4 0 2 4 7 6 7 8 7 7 7 8 7 7 8 7 8 7 8 8 6 6 5 5 6 6 6 5 5 7 10 9 9 9 10 10 10 10 9 11 11 11 11 11 9 8 8 10 8 8 8 9 8 10 10 12 13 13 14 14 14 14 14 14 15 16 15 16 16 15
1 3 3 3 1 2 2 3 6 2 3 5 0 5 6 3 1 2 1 1 5 3 1 1 2 1 4 1 2 3 3 6 8 10 9 7 7 7 7 6 6 8 6 9 7 8 9 6 7 6 6 7 7 6 6 6 7 9 8 9 10 10 10 11 10 11 10 9 9 10 9 6 5 5 6 5 6 6 9 8 9 9 10 11 13 14 14 14 14 15 15 15 15 15 15 14 13
1 2 6 1 2 3 7 7 10 1 4 4 4 7 7 3 1 1 2 5 2 0 1 2 1 4 2 3 3 3 3 10 11 12 10 8 8 7 8 8 9 8 8 9 8 7 9 6 7 6 6 7 7 6 5 5 6 8 8 7 7 7 8 8 7 6 7 6 8 7 5 4 4 4 4 5 4 6 8 9 10 10 10 10 12 13 14 13 13 14 14 15 14 13 11 7 7
4 2 2 4 5 4 8 6 7 3 1 5 4 3 4 5 8 3 3 1 1 1 2 2 2 4 3 3 3 4 8 11 13 12 13 12 10 10 9 8 9 8 9 8 6 10 7 8 6 6 7 7 7 7 5 5 6 6 8 7 6 6 6 6 5 6 5 5 4 5 4 3 4 4 3 5 5 10 11 10 10 11 11 12 11 13 13 13 13 14 14 12 12 11 7 5 5
1 4 2 3 9 2 4 5 8 1 6 7 5 3 3 1 3 2 2 3 1 6 5 2 3 6 7 1 5 8 9 12 12 15 16 13 11 11 11 10 9 9 9 9 8 8 6 7 8 6 7 8 7 6 5 6 5 6 6 6 6 5 4 4 4 4 4 5 4 4 4 4 4 4 7 9 7 6 7 11 12 13 13 12 13 10 12 11 12 12 11 10 7 4 5 5 5
1 3 4 2 5 3 2 6 2 3 2 6 5 2 2 1 3 3 4 5 4 6 8 10 11 10 8 5 8 10 12 12 12 12 13 13 12 9 10 10 8 7 6 6 6 9 8 8 8 6 7 7 8 6 6 6 6 6 6 6 6 5 4 4 4 4 4 5 4 4 4 4 4 3 3 3 3 4 5 4 5 5 5 6 9 7 6 4 4 4 5 5 4 4 5 5 5
4 0 0 3 3 1 1 5 3 3 0 9 5 9 6 2 1 3 9 6 7 9 7 11 8 6 12 11 11 11 11 14 15 12 14 15 15 15 10 7 7 5 5 8 9 8 8 9 8 7 7 7 8 7 7 6 6 6 6 6 6 5 5 4 4 4 4 4 4 4 4 5 4 4 3 3 3 4 4 3 4 4 5 5 4 6 4 3 3 4 5 5 4 4 5 4 4
2 1 0 2 2 1 1 1 4 6 4 7 8 4 5 5 1 1 5 10 4 4 1 4 6 6 4 7 12 13 14 15 15 16 15 15 14 14 13 11 9 8 7 7 7 7 7 9 9 8 7 7 9 7 6 6 6 6 6 6 7 6 4 5 4 4 4 5 5 4 5 4 4 4 3 3 3 3 4 3 4 3 4 4 3 5 4 3 3 4 4 5 5 5 5 5 5
3 3 1 0 2 1 1 1 4 2 9 6 3 3 4 4 4 1 4 6 2 2 2 3 3 7 10 12 14 17 19 18 18 18 15 15 15 14 11 11 8 6 5 7 7 6 8 9 8 9 9 9 9 9 7 7 7 7 8 8 7 7 6 5 4 4 6 5 4 4 3 4 5 5 4 3 3 2 3 3 3 3 4 4 3 4 4 3 4 4 5 6 6 5 5 5 4
2 2 2 1 0 1 1 3 5 3 2 1 3 6 1 4 2 3 8 9 6 2 5 6 6 7 8 10 12 13 14 13 13 11 9 8 8 7 7 7 7 7 8 7 7 7 9 9 9 9 8 11 9 9 10 6 7 7 6 8 7 9 7 6 6 5 5 5 5 5 5 5 4 4 4 4 3 3 3 3 3 3 3 4 4 4 3 4 4 4 5 5 5 5 5 5 5
2 2 4 1 1 1 1 7 5 3 3 2 6 1 1 2 1 4 9 4 4 2 5 6 6 6 9 11 13 14 15 17 14 12 14 9 7 10 11 9 9 10 11 7 7 9 8 10 10 11 9 8 9 9 9 7 8 9 10 9 8 8 6 6 8 6 5 6 6 5 5 4 5 5 5 4 5 4 3 3 3 3 4 3 4 5 3 3 4 4 5 5 5 5 4 4 4
4 6 4 5 1 0 4 4 2 1 3 0 5 1 1 1 2 7 2 2 2 4 3 2 7 8 8 8 10 11 14 16 17 12 7 8 9 10 11 10 11 12 11 11 7 6 7 10 11 10 10 9 8 9 8 7 6 7 8 8 9 10 10 7 6 6 5 6 6 7 6 5 5 5 5 5 4 5 4 4 3 3 4 3 3 4 3 3 3 4 4 5 4 5 4 3 4
6 11 6 8 4 6 1 5 3 1 2 2 5 1 1 1 1 7 1 3 1 6 5 4 5 7 8 8 10 10 11 9 6 9 15 14 13 13 13 13 14 12 11 13 11 6 5 9 11 11 9 9 10 9 7 8 8 6 6 6 8 7 10 9 7 6 6 6 7 7 7 7 6 6 6 6 5 5 5 4 4 5 5 4 4 4 5 4 4 4 4 3 4 5 5 4 3
5 1 4 2 3 3 6 2 2 1 0 0 0 2 1 0 7 4 2 3 3 3 5 5 6 6 5 7 8 9 11 9 9 11 14 14 12 11 15 13 11 12 9 10 9 10 9 7 7 10 12 10 10 10 10 9 7 7 7 8 6 7 8 10 9 9 8 8 7 7 8 8 7 7 7 7 7 6 6 6 5 5 5 5 5 6 6 5 5 5 5 4 4 4 5 5 3
3 6 5 3 1 2 1 2 2 2 0 1 1 3 7 11 12 4 2 4 3 2 4 6 6 5 5 5 8 8 8 8 11 14 11 11 11 11 13 11 11 9 8 7 9 12 10 7 6 5 7 8 10 10 8 7 6 5 6 7 9 10 8 8 9 7 9 8 9 9 8 7 7 6 7 7 6 5 6 6 7 7 6 7 7 7 7 6 6 6 7 6 4 4 4 5 5
7 1 5 2 4 2 2 1 3 5 0 2 1 3 6 7 8 4 3 0 3 4 6 6 6 6 6 6 7 8 9 11 14 13 9 9 9 9 11 9 11 11 7 8 11 11 10 10 8 8 9 9 7 7 8 8 6 6 5 6 7 9 7 7 8 8 9 10 8 8 10 9 8 8 8 8 9 8 7 7 8 7 6 6 6 6 5 5 5 7 8 8 6 4 4 3 3
3 6 1 1 5 3 4 1 2 5 0 3 4 2 8 8 6 4 4 1 4 4 5 6 6 7 7 6 7 8 10 8 10 11 12 11 10 9 10 12 9 11 13 12 9 8 10 9 9 10 10 13 10 8 8 9 10 7 6 6 6 8 8 7 5 6 6 6 7 7 10 11 11 10 10 9 8 8 8 7 6 4 6 5 5 6 6 6 5 5 4 6 9 6 6 5 2
5 3 1 3 1 2 2 1 1 3 2 3 2 6 4 4 3 1 2 1 3 4 6 6 7 7 7 7 7 8 8 9 9 12 13 13 12 12 11 10 10 12 11 11 11 11 11 11 10 10 11 12 12 9 7 7 7 9 8 6 5 6 9 9 8 7 7 8 7 8 7 7 9 10 9 8 7 7 6 7 6 6 6 6 6 5 6 6 6 5 4 1 2 7 7 7 5
2 3 3 3 6 2 2 2 1 2 1 4 2 2 7 3 5 5 6 0 1 3 7 7 7 7 7 6 7 8 9 9 12 12 14 12 10 14 13 11 11 10 10 11 11 12 13 11 11 12 11 9 9 11 9 7 6 7 7 6 5 4 5 7 8 9 7 6 6 7 8 8 7 8 9 9 8 7 7 7 7 7 7 6 4 4 5 5 5 5 7 4 3 6 6 7 6
6 4 3 1 0 2 2 3 1 0 2 4 0 4 12 12 9 9 3 1 1 5 6 6 7 7 7 7 7 9 9 10 15 11 9 10 12 12 10 12 11 11 10 11 10 11 10 10 10 11 12 12 11 9 10 8 6 5 6 6 5 5 3 3 4 7 9 9 10 10 8 8 9 9 10 10 8 7 7 7 8 9 9 8 8 6 4 6 6 7 8 7 4 2 5 7 9
12 10 5 5 7 4 3 4 2 1 3 5 5 9 10 11 10 11 1 2 3 7 5 7 8 8 8 8 8 8 10 13 12 5 6 7 9 10 11 9 10 10 10 9 11 10 11 10 10 10 11 10 9 9 7 8 7 8 7 3 5 6 4 4 4 4 3 6 8 9 10 9 8 8 8 8 8 7 7 7 8 8 9 9 9 8 8 8 11 11 9 9 8 5 3 4 6
5 4 5 5 7 1 3 2 2 0 1 6 5 6 6 12 11 11 8 2 4 6 9 9 8 8 8 8 9 10 10 15 1 5 6 7 8 8 8 8 10 10 10 11 11 12 12 12 11 14 11 10 9 9 8 9 9 7 7 10 10 8 6 6 5 4 4 4 5 6 8 7 9 9 8 9 10 10 9 8 7 8 8 9 9 11 9 8 8 7 7 5 9 9 5 4 4
8 6 6 2 0 2 1 0 2 3 2 2 1 3 11 14 11 11 7 2 10 11 10 10 11 10 8 9 10 11 12 4 3 6 6 4 7 6 6 7 9 11 12 12 14 15 13 12 13 12 9 10 11 12 10 10 10 10 9 9 8 7 7 7 7 5 6 5 5 5 3 6 9 11 11 12 12 12 10 9 8 9 11 9 10 6 5 5 6 5 7 6 2 10 8 9 8
4 6 4 4 3 2 2 1 1 3 2 6 2 2 10 11 10 11 7 9 7 7 8 7 7 9 8 8 10 10 6 10 4 9 6 7 6 6 7 7 9 12 10 13 13 11 11 11 12 11 10 11 11 11 10 11 9 7 8 5 8 5 4 6 6 4 5 5 4 4 3 3 4 5 7 9 9 9 10 9 10 10 10 8 7 8 9 9 8 9 11 9 9 4 3 9 11
6 6 5 6 4 5 3 3 0 3 2 2 0 3 10 8 7 12 12 7 7 7 7 10 7 10 11 10 6 7 8 9 10 9 10 8 6 6 6 8 10 9 8 9 10 12 11 11 11 11 11 11 10 11 11 9 7 4 2 3 3 4 4 3 3 2 3 3 4 4 4 4 3 4 5 7 7 7 9 12 11 9 10 10 10 9 10 10 10 8 9 8 9 8 6 9 10
1 4 4 4 3 3 3 4 1 1 0 2 0 4 9 4 7 8 3 3 3 7 6 9 10 11 9 6 8 8 11 9 11 11 9 6 6 8 10 9 6 9 10 11 11 12 11 14 13 12 10 11 10 10 10 8 7 6 4 5 4 4 3 3 3 4 4 4 3 5 7 5 5 5 4 5 7 8 7 6 7 7 8 8 7 8 9 10 12 11 11 10 12 10 10 6 9
0 4 7 6 6 8 1 4 5 2 2 3 1 2 5 4 7 11 7 9 5 3 3 10 9 5 4 8 12 7 10 10 11 12 9 4 7 6 6 7 8 9 10 10 9 9 9 8 9 9 8 8 10 11 10 9 9 10 8 8 6 5 6 5 8 9 8 8 10 7 4 5 5 5 4 4 4 5 7 9 11 12 12 10 10 9 7 8 9 11 11 9 11 9 9 8 9
3 5 6 4 7 8 8 6 3 2 3 2 1 6 5 6 3 1 4 7 10 8 5 11 8 6 5 9 8 7 8 7 6 9 9 9 8 7 8 8 9 10 10 5 7 8 8 8 9 10 9 9 8 9 10 9 9 9 12 12 11 11 11 8 6 6 7 7 6 7 5 4 5 5 4 4 4 5 6 7 7 8 9 10 9 7 9 10 11 12 11 9 9 9 8 10 12
4 1 6 8 10 10 9 8 4 1 1 1 4 3 2 6 9 4 5 4 9 8 9 9 7 5 7 7 7 7 7 7 7 9 8 7 7 7 10 8 8 9 5 6 7 7 9 9 10 10 8 8 8 9 10 10 11 10 10 10 9 9 10 9 9 7 4 4 5 6 5 4 4 4 5 4 4 5 5 6 8 9 9 9 8 9 11 9 7 9 10 10 9 9 11 11 11
2 1 4 7 9 6 7 6 5 1 1 2 2 2 1 5 8 4 3 3 5 8 8 9 4 5 6 6 6 6 7 7 7 8 7 5 6 6 8 8 6 6 6 7 8 7 7 7 8 8 8 8 8 10 11 10 10 10 11 9 9 7 7 5 4 3 5 4 6 4 5 5 4 4 5 5 6 6 6 7 8 9 9 9 9 10 9 9 12 12 10 10 10 9 9 10 8
1 6 8 8 8 7 5 4 5 1 3 5 3 2 3 8 6 5 3 1 6 8 10 6 5 5 5 6 6 5 5 5 5 7 8 7 6 6 6 5 4 5 5 5 5 6 7 7 8 9 9 8 8 9 9 10 9 8 8 9 10 8 6 4 4 5 5 5 6 6 5 6 6 6 5 6 5 6 6 6 7 8 9 10 9 10 11 10 11 11 13 14 14 16 9 10 11
10 5 9 6 8 4 3 6 3 3 1 6 3 5 1 5 5 7 5 7 8 6 6 4 3 3 4 5 5 5 6 6 5 6 5 5 5 4 3 2 2 2 4 5 6 7 7 8 8 9 9 7 7 9 9 10 9 8 9 10 11 11 9 8 6 5 5 4 6 6 7 7 5 7 5 5 6 5 5 6 7 8 8 8 9 11 13 10 10 11 13 14 13 14 10 10 11
6 4 5 8 5 7 5 4 5 2 5 4 2 1 0 6 6 6 8 5 3 3 2 1 1 3 4 4 4 4 5 6 6 5 4 4 2 3 3 3 3 3 4 5 5 5 7 7 8 9 7 8 7 8 8 9 8 9 9 10 10 10 10 9 9 9 9 9 8 7 6 4 5 5 4 5 5 6 6 7 7 8 8 8 9 8 9 9 10 10 9 10 10 12 11 10 10
3 7 8 9 1 4 1 2 2 4 5 1 3 1 1 10 9 6 6 10 7 8 7 6 3 6 7 5 6 6 5 6 5 5 5 4 1 1 2 2 3 5 5 6 6 6 6 6 8 9 9 8 7 8 9 9 9 9 9 10 9 8 9 9 9 9 8 8 8 7 7 7 5 5 5 6 7 8 6 7 7 8 8 8 9 10 10 10 10 10 11 12 11 13 12 13 12
4 9 7 7 3 2 3 3 1 5 5 4 1 1 4 5 7 13 16 11 4 7 9 8 7 8 7 7 7 9 8 6 6 5 5 4 3 2 2 2 4 4 3 5 5 5 6 6 7 8 8 7 7 7 8 9 9 9 9 9 9 8 8 8 8 8 8 8 7 8 8 8 7 8 7 8 7 8 7 7 8 8 8 8 9 10 10 11 11 11 11 11 12 11 10 13 13
7 0 8 9 9 6 6 4 6 7 5 2 3 2 7 2 2 1 9 5 3 4 5 4 6 8 7 7 8 9 7 5 4 5 5 4 4 4 4 4 4 4 5 5 5 5 6 6 7 8 7 8 8 9 7 8 8 9 8 8 7 7 7 7 8 7 7 8 7 8 7 7 7 7 7 7 7 7 8 7 8 9 7 7 8 9 9 10 10 10 10 12 12 10 12 12 12
1 2 4 6 7 6 3 4 3 2 2 1 1 6 4 5 3 8 6 7 7 6 6 3 9 6 4 7 6 6 6 6 4 4 4 4 5 4 4 5 5 5 6 5 6 6 7 7 8 9 9 8 8 8 7 8 9 7 7 8 8 7 6 6 6 6 6 7 8 9 8 8 7 6 5 6 7 8 8 8 7 8 8 8 8 9 9 9 10 10 10 9 11 8 10 13 12
5 4 4 4 2 11 7 2 1 1 5 5 2 7 7 8 7 11 2 3 7 1 2 1 7 6 2 5 5 5 6 6 4 3 3 2 2 4 4 3 4 5 6 7 8 8 9 8 8 9 7 6 8 9 9 9 8 7 8 7 6 7 8 10 9 9 9 8 8 7 7 7 6 5 6 6 7 7 7 7 6 8 8 8 8 8 9 10 10 10 11 11 11 10 10 13 12
8 1 7 2 3 6 5 3 2 3 3 6 2 7 6 4 7 5 4 3 8 3 5 4 4 4 5 5 4 5 7 6 5 6 6 6 5 5 5 5 5 6 7 7 8 7 6 7 8 9 8 9 9 9 9 9 9 9 8 8 8 9 9 9 8 8 7 7 7 6 6 6 7 6 6 6 6 7 7 8 8 8 8 8 9 8 8 9 9 9 11 11 11 10 11 10 11
2 3 3 5 2 2 1 5 1 1 2 4 3 3 5 6 8 4 1 6 9 7 3 2 4 5 7 5 5 7 6 5 4 2 1 5 5 6 6 7 6 5 6 6 5 5 6 6 7 7 9 8 8 7 7 6 6 7 7 9 9 8 8 8 7 7 6 8 8 7 7 7 5 6 6 6 7 7 7 7 7 8 7 8 8 8 8 9 9 10 10 10 9 9 10 11 11
2 2 3 0 2 1 4 6 3 5 4 2 6 3 7 8 8 9 8 7 9 5 2 6 7 8 6 5 4 4 2 0 1 1 2 1 4 5 6 6 6 7 7 6 6 5 8 8 7 7 6 4 5 7 7 8 7 7 8 7 8 8 8 7 7 7 7 7 7 7 7 7 8 6 7 7 7 8 8 8 8 8 8 8 8 7 8 8 9 10 9 9 8 9 10 12 11
2 2 2 0 2 2 4 2 3 4 5 6 2 4 6 7 8 9 12 10 7 6 4 6 6 7 7 6 6 5 3 2 1 1 3 4 2 1 3 5 6 4 4 5 6 8 7 6 8 9 10 8 7 7 7 8 7 8 8 9 9 8 9 8 9 9 10 10 8 7 7 7 6 8 8 8 8 9 9 9 9 9 9 8 8 8 7 7 8 9 9 9 9 10 11 11 10
5 9 9 10 8 4 4 5 2 2 3 4 4 8 6 10 4 10 10 5 4 4 2 1 2 5 9 6 5 4 5 2 1 1 4 5 6 5 2 0 2 2 4 6 6 5 6 8 8 7 7 7 8 8 8 7 7 7 9 9 9 7 6 6 8 8 9 8 7 7 8 7 9 8 8 9 9 8 8 9 9 9 9 8 8 8 7 7 8 8 9 8 9 10 11 11 10
Wind_Direction
3 9 3 58 45 96 51 5 173 328 57 80 26 155 166 67 212 106 90 70 131 237 182 71 141 148 182 202 185 172 244 138 203 142 207 256 262 169 149 140 135 135 134 143 138 143 142 144 127 120 116 111 107 101 95 91 89 90 91 93 92 87 84 91 91 94 93 97 97 97 101 100 97 97 95 91 89 87 89 89 85 80 78 79 81 80 81 85 85 82 82 82 80 80 79 81 81
20 339 39 3 43 45 219 133 96 357 40 87 233 111 237 279 105 196 166 182 196 153 166 114 93 100 80 73 107 129 91 313 174 156 358 222 137 142 155 148 142 140 142 146 141 140 143 139 129 126 121 116 111 108 105 103 99 95 92 89 87 88 90 91 90 85 81 83 96 107 104 101 97 94 97 99 91 86 84 83 84 86 85 76 79 84 80 80 85 85 84 86 84 82 83 83 85
21 12 81 24 38 72 95 24 268 3 88 161 259 206 352 131 190 196 200 209 222 144 137 95 122 55 26 123 83 49 201 16 208 250 121 146 138 175 164 152 146 142 144 147 145 144 130 139 134 130 124 118 113 109 106 102 100 98 96 91 91 95 96 92 86 80 92 95 96 98 105 104 103 99 88 84 88 91 90 87 79 73 81 88 87 87 86 87 85 84 85 87 86 84 83 83 84
93 25 117 69 252 28 56 31 78 123 128 197 320 245 187 176 207 185 217 245 145 127 178 142 149 245 132 176 200 101 63 203 184 147 138 173 180 152 156 152 146 143 144 146 147 140 135 143 141 131 126 121 117 111 107 104 103 99 97 92 91 95 90 86 89 90 80 82 88 101 107 103 97 103 100 97 94 91 87 84 92 99 91 88 86 84 84 83 84 86 87 88 87 86 85 82 82
66 14 70 106 112 10 99 95 132 93 171 191 170 248 230 197 173 162 122 173 178 94 68 157 81 2 173 97 139 151 192 77 204 261 139 132 76 138 151 150 148 144 145 149 147 146 137 144 141 131 130 125 120 114 110 104 102 102 99 98 96 94 95 91 86 87 92 87 97 112 105 102 100 97 99 97 96 93 91 87 86 86 88 86 84 85 86 87 87 89 90 88 87 87 88 88 86
58 56 6 90 66 157 75 80 66 164 223 155 107 235 212 202 155 165 144 176 237 245 147 133 161 182 166 302 194 103 190 147 175 218 159 159 149 135 156 151 149 146 147 147 148 149 144 150 146 138 135 128 123 119 113 112 108 105 102 104 103 99 97 101 94 86 85 81 76 88 97 100 106 99 101 103 100 99 96 92 89 94 92 93 92 90 89 90 88 87 87 86 88 87 85 86 88
247 47 1 48 35 47 162 120 198 195 274 161 131 243 195 189 177 130 126 130 312 41 107 198 114 97 79 282 32 253 186 220 180 182 146 126 134 152 155 156 150 149 148 142 148 151 152 159 156 143 138 132 128 124 120 115 112 110 109 105 105 105 102 94 84 76 85 90 83 95 103 101 102 103 103 104 103 100 100 102 93 74 76 81 89 92 90 89 92 92 91 91 92 90 88 89 90
66 131 322 101 352 43 53 130 221 176 20 193 182 256 224 175 150 142 162 125 205 183 212 271 231 102 242 56 159 227 340 219 288 306 246 140 142 162 162 156 151 152 151 139 146 145 156 161 156 145 141 137 134 130 124 116 115 113 111 110 106 106 102 93 86 86 95 88 90 92 98 95 98 104 103 103 102 104 101 97 100 97 92 95 96 92 92 95 95 95 94 93 92 92 91 92 93
1 87 266 71 60 29 67 78 266 246 294 259 280 232 290 178 164 134 158 232 3 173 152 187 205 182 212 80 160 283 296 287 317 257 156 153 159 165 165 161 154 153 152 143 146 152 155 156 150 152 144 141 139 134 128 121 118 117 114 112 109 107 104 99 98 92 95 99 93 100 102 101 100 102 105 107 108 106 107 104 95 99 98 95 90 91 92 90 93 94 95 97 96 95 94 94 95
46 53 245 112 136 37 15 284 103 174 243 230 229 206 175 170 130 116 146 94 209 131 210 2 188 125 130 118 9 325 128 346 300 120 161 160 162 166 164 163 159 154 153 147 146 156 153 149 149 149 150 144 142 139 130 127 124 121 118 114 113 111 110 108 103 95 96 107 103 103 109 110 107 104 105 108 109 111 108 105 105 100 97 97 97 93 91 93 95 96 97 97 98 97 97 98 97
328 22 134 76 33 79 151 264 265 314 272 321 279 236 205 159 121 110 85 139 40 155 186 195 90 137 108 257 214 272 309 313 149 160 161 163 157 169 165 163 160 159 158 150 152 155 158 155 148 150 150 147 145 139 132 135 130 123 120 117 117 116 112 112 108 99 93 107 114 114 112 110 104 105 106 107 112 112 111 111 111 108 105 101 97 96 98 97 97 97 98 98 98 99 99 100 99
17 15 13 100 129 140 227 155 269 284 296 331 134 186 174 158 115 120 134 128 203 158 173 165 217 149 64 337 269 239 316 222 179 149 153 145 159 166 163 155 161 163 164 158 153 156 158 154 154 148 144 141 141 136 136 138 131 126 122 121 119 117 115 114 112 106 100 93 101 103 115 114 110 107 109 112 115 119 116 117 116 109 104 104 103 102 101 99 97 97 99 101 100 101 99 99 97
108 96 87 84 147 165 145 108 230 308 341 270 155 190 132 138 181 172 160 96 115 132 276 205 155 85 143 178 249 311 165 211 179 151 142 147 154 147 154 155 162 161 165 159 160 160 157 157 151 153 148 139 139 139 139 136 132 127 123 121 119 116 117 114 114 111 97 81 89 95 87 90 106 107 109 114 108 118 120 118 113 113 111 111 107 105 104 104 103 103 105 104 103 103 102 98 94
119 180 124 132 40 118 137 176 336 139 272 224 284 132 169 140 234 167 132 134 203 171 253 188 141 137 101 6 272 241 220 192 160 147 137 139 138 144 157 157 159 163 168 165 167 165 154 150 148 147 144 148 146 137 135 133 130 124 119 114 112 112 114 110 94 89 87 87 90 88 83 74 71 92 107 106 96 83 106 113 109 112 112 111 109 108 108 109 110 109 107 104 103 103 102 102 97
122 156 84 114 48 89 238 112 194 146 214 172 169 141 187 276 101 144 163 145 236 210 329 303 188 131 224 155 260 203 188 174 146 141 137 134 144 152 160 158 162 165 167 169 166 164 160 146 151 152 150 149 149 140 133 132 128 121 117 113 108 107 99 93 91 83 93 95 93 90 87 83 81 78 76 64 56 73 80 91 102 110 118 118 113 112 111 112 112 112 110 107 107 107 103 101 98
138 94 81 99 150 135 224 111 288 104 256 175 132 134 129 12 215 132 242 151 144 354 196 187 22 218 261 134 233 229 206 137 147 142 136 141 146 144 151 163 167 170 170 171 163 167 167 155 151 150 149 152 154 153 144 128 128 123 119 112 107 102 99 97 88 89 94 96 95 93 89 88 83 76 71 64 58 78 82 89 112 121 120 119 116 113 113 112 113 114 113 110 112 109 106 100 91
91 83 58 49 153 178 212 153 150 187 240 239 279 154 163 190 218 260 32 58 123 184 351 258 175 29 181 178 206 324 301 150 141 141 142 151 152 151 157 167 170 171 171 178 167 168 171 160 154 155 151 152 154 153 147 143 134 122 114 106 104 101 101 98 92 97 96 94 98 95 91 88 84 77 69 66 66 75 67 68 109 109 111 115 117 115 114 114 114 111 112 106 110 107 99 87 80
52 78 115 87 202 146 198 176 188 204 127 214 186 199 141 172 181 179 112 42 58 359 216 304 310 260 268 283 239 293 236 156 153 150 159 160 163 163 166 171 171 179 179 183 175 175 166 168 163 158 159 152 152 156 150 143 138 126 127 122 111 103 102 102 98 100 100 98 96 95 93 94 88 78 74 78 71 71 66 68 103 104 107 107 112 116 113 113 112 113 116 117 109 99 89 84 74
90 138 95 207 179 238 163 187 180 115 234 153 187 182 180 203 143 207 120 281 24 146 270 11 313 278 246 305 267 188 168 160 162 163 163 169 175 175 176 170 180 172 183 185 174 176 169 174 162 165 164 159 155 155 151 143 144 133 130 124 112 100 101 94 101 104 100 99 94 95 97 93 85 75 73 87 79 74 73 66 82 97 100 99 98 102 110 107 114 118 117 105 100 93 87 87 81
210 114 157 249 204 223 206 170 180 213 135 135 153 189 156 222 144 150 208 159 79 191 201 296 256 241 209 316 144 165 166 165 168 168 174 182 185 184 179 184 188 184 181 184 178 174 168 165 172 168 168 160 160 158 154 151 148 139 132 127 123 117 107 107 102 104 107 105 107 107 106 96 88 84 88 86 85 79 77 73 75 78 79 76 86 95 90 104 112 100 91 92 85 74 89 89 89
227 83 158 217 179 124 220 189 211 183 146 142 140 103 161 229 195 166 164 122 253 266 232 184 206 218 192 178 163 165 167 168 173 178 183 190 195 200 196 197 192 183 181 175 174 183 179 170 173 179 167 163 167 163 158 158 151 145 140 133 135 132 119 117 115 111 109 113 111 117 113 103 93 87 75 81 79 85 80 81 79 81 86 87 88 82 74 58 73 86 82 64 68 73 81 87 98
95 75 196 154 124 57 199 190 160 138 196 115 135 137 210 99 80 124 158 176 217 212 228 215 216 194 159 169 173 169 171 172 178 182 190 193 197 202 202 195 199 187 155 188 188 183 184 176 173 180 168 168 169 167 170 152 150 154 144 140 138 134 131 125 126 124 123 123 125 123 117 110 102 90 90 84 86 92 92 89 87 91 90 89 85 93 92 96 99 100 90 81 72 62 72 72 68
152 313 344 187 204 146 190 214 198 137 125 138 150 198 108 143 170 211 188 204 232 228 235 238 215 169 140 142 155 172 176 181 186 192 191 194 200 204 203 199 192 196 182 198 190 176 178 179 178 176 184 168 180 171 162 161 166 158 148 150 144 146 135 132 138 133 132 136 134 138 134 126 116 112 102 100 98 98 101 104 101 99 101 99 98 108 107 109 112 105 100 92 88 75 66 71 68
104 177 141 199 205 112 233 172 136 108 133 176 187 110 138 146 178 137 215 240 206 49 292 242 180 124 144 150 174 177 185 187 195 195 194 198 197 200 197 199 200 187 189 198 190 185 173 186 180 179 187 182 188 182 191 172 173 163 157 156 157 152 145 144 146 143 145 146 144 146 134 134 135 129 122 120 107 105 105 101 107 104 102 101 107 104 121 125 116 106 107 102 97 87 84 69 69
110 109 209 171 353 330 41 138 107 126 92 32 120 133 240 178 171 102 245 235 247 307 69 97 117 136 150 163 178 190 193 199 199 199 203 211 209 205 202 201 196 199 215 207 189 185 191 175 183 192 191 184 191 181 199 194 175 166 153 163 167 159 159 152 153 147 149 155 150 149 149 141 141 134 135 133 134 114 110 113 116 112 108 115 120 115 131 133 124 122 115 114 108 109 104 97 90
147 142 123 147 85 357 119 78 80 98 113 98 110 37 328 234 203 240 240 250 296 190 77 115 125 146 171 182 186 185 192 198 199 201 206 199 197 199 206 198 195 204 210 205 197 199 191 185 184 195 195 190 189 188 194 192 192 186 169 170 167 165 162 152 149 155 152 156 159 159 161 152 157 154 145 145 142 138 128 123 121 124 121 124 129 137 151 139 134 127 119 116 118 110 99 92 97
130 103 100 104 325 24 352 117 62 60 111 305 136 137 96 312 111 269 19 277 330 110 99 133 155 179 194 191 193 199 195 199 198 199 194 205 210 207 208 204 203 210 204 211 201 190 187 183 190 192 196 189 188 196 191 191 192 198 179 176 167 172 164 150 158 154 155 166 163 158 160 157 153 158 152 152 149 142 146 142 142 134 132 137 138 132 141 136 125 122 125 128 124 112 96 98 102
100 134 100 46 23 78 6 73 40 113 58 83 127 115 291 325 96 231 228 347 261 153 178 187 194 194 195 202 202 205 210 209 194 189 205 202 207 209 206 204 206 204 202 207 208 182 185 195 188 185 197 192 189 201 195 196 200 190 160 170 168 176 165 159 159 157 160 168 165 162 165 164 164 164 162 162 155 152 154 157 153 158 153 148 149 150 140 139 125 110 89 73 94 105 107 94 66
160 159 92 329 15 46 0 73 342 351 121 122 202 93 292 347 226 250 271 324 117 147 183 220 228 220 201 207 210 210 213 203 199 210 213 211 210 209 214 210 204 205 213 207 201 202 203 199 191 189 185 191 196 198 198 194 204 199 175 170 166 174 176 175 170 174 169 166 173 174 170 173 171 172 173 169 167 158 155 159 168 173 163 157 156 153 144 138 132 122 109 107 99 102 106 102 89
114 43 116 51 31 17 342 307 330 96 251 55 317 207 257 240 238 238 328 3 85 126 224 224 235 239 227 211 218 224 217 205 210 215 214 214 215 215 221 213 213 210 203 202 196 206 210 215 203 188 187 192 201 189 187 188 184 193 184 180 173 180 188 187 179 174 177 170 173 177 170 173 181 177 169 168 166 167 168 172 172 177 177 164 157 160 161 160 147 139 137 131 126 128 122 126 128
143 198 54 125 127 248 307 9 317 118 234 19 150 202 282 274 284 265 336 349 154 206 231 239 240 250 241 229 227 225 228 218 220 223 224 218 219 223 225 218 216 214 209 204 206 203 196 208 206 219 202 208 204 215 199 195 194 202 193 190 188 182 177 189 184 184 183 184 178 173 170 171 181 181 180 174 178 174 177 184 184 183 170 166 159 166 157 159 154 155 154 140 137 123 111 115 109
22 94 268 337 154 262 297 54 356 163 331 27 103 303 248 256 255 273 318 4 159 218 247 244 245 242 242 243 241 243 236 228 238 237 234 233 226 225 217 218 208 209 211 213 210 204 208 199 192 206 203 212 217 214 209 203 200 198 186 188 182 175 168 178 179 185 192 184 184 190 179 179 178 183 184 181 179 182 181 183 183 151 154 168 167 159 158 161 164 151 162 147 140 142 134 123 95
0 110 213 187 117 226 342 242 22 328 118 6 159 216 324 315 265 215 336 82 150 212 259 259 253 248 244 241 243 251 269 252 239 233 227 222 226 228 225 218 209 211 209 205 206 205 217 214 207 204 201 204 200 200 201 199 197 192 190 192 194 186 179 181 178 183 188 185 184 196 197 187 187 177 182 183 178 178 179 172 160 151 157 170 172 170 163 158 157 151 147 194 154 145 148 135 126
224 20 145 210 160 193 244 307 268 20 106 201 15 199 230 228 266 274 310 166 124 207 252 258 252 249 246 243 239 245 246 259 251 236 229 212 219 218 221 219 217 210 210 209 206 204 209 208 213 217 219 209 205 203 201 199 197 196 195 194 185 186 225 191 170 169 185 191 190 196 190 200 197 186 179 177 189 189 184 175 146 151 155 159 169 183 162 145 149 157 151 165 180 151 148 143 132
189 181 117 218 306 222 212 155 225 40 14 180 274 237 263 263 276 275 257 171 184 244 248 263 266 257 251 238 238 238 242 243 247 238 234 221 221 221 216 215 211 210 210 207 205 207 205 205 206 212 214 214 214 209 208 205 203 208 201 192 197 211 200 219 174 184 183 185 190 190 190 196 202 198 186 180 181 178 177 169 159 162 162 167 169 175 172 158 157 166 166 135 123 147 137 149 144
187 178 167 123 136 189 204 244 280 183 165 213 192 216 245 266 278 281 224 169 197 258 278 274 262 259 258 248 246 242 238 248 247 242 223 219 216 213 215 210 210 207 206 201 202 201 203 202 203 208 210 203 200 201 191 200 202 209 211 180 222 224 210 205 195 191 176 186 190 191 186 188 191 196 192 179 174 172 174 182 168 159 165 167 177 179 181 180 176 170 171 150 136 133 109 118 127
118 83 106 157 154 267 284 279 273 64 101 237 229 267 275 270 258 268 275 230 265 266 267 260 255 250 245 245 240 243 243 244 256 218 225 222 219 214 211 201 208 206 207 200 200 204 202 200 193 206 201 192 189 188 189 189 194 200 209 210 214 213 209 200 211 202 193 190 179 191 192 188 186 191 190 182 186 186 188 179 166 167 169 180 180 195 190 180 175 164 139 140 142 142 141 138 148
143 141 141 151 201 132 220 127 350 328 156 291 35 293 264 260 271 267 276 303 270 255 257 259 258 246 242 235 245 239 241 300 293 280 252 248 238 226 207 202 193 196 213 199 204 205 201 196 198 203 185 193 195 194 193 194 196 199 194 202 197 194 194 194 218 207 209 207 190 176 204 196 189 190 192 195 196 193 187 176 179 180 184 191 193 162 160 164 170 154 145 136 204 153 158 169 172
51 140 145 116 255 237 300 309 357 336 114 262 12 283 266 267 267 269 250 236 241 229 218 233 229 252 244 236 240 250 267 264 274 257 272 247 238 223 205 206 208 211 203 200 210 202 198 197 204 193 190 192 197 193 189 199 199 194 192 188 187 187 207 204 206 189 190 199 195 183 189 210 188 193 198 202 198 190 184 172 182 185 192 188 180 179 165 168 178 177 176 165 155 186 130 176 183
111 92 107 194 226 142 239 264 3 5 96 319 196 310 280 284 272 261 258 224 250 260 257 258 236 247 245 237 234 245 250 258 262 251 249 250 243 235 219 216 214 207 202 203 201 201 197 201 200 193 192 192 192 193 194 197 180 132 70 105 142 155 180 144 144 89 136 150 195 165 193 204 198 186 174 183 198 202 199 199 193 184 187 184 184 173 173 176 174 176 180 178 160 158 187 194 203
331 144 137 143 149 235 147 199 120 324 29 74 107 312 294 316 275 277 295 348 316 283 304 269 256 239 257 295 279 237 249 245 257 262 252 245 252 241 223 222 206 204 208 204 198 199 197 200 198 193 188 191 192 186 185 157 123 114 108 69 78 88 55 111 169 208 188 181 182 200 210 170 186 189 187 190 194 199 195 180 166 169 171 182 184 186 181 183 184 183 181 176 185 179 180 189 203
267 233 177 186 180 151 88 119 110 27 282 18 66 307 301 304 273 240 293 337 314 281 310 266 256 260 256 253 253 256 247 242 246 259 266 252 237 254 249 226 210 215 215 212 199 199 194 193 184 184 181 184 187 184 175 162 169 165 157 158 163 183 196 172 198 198 200 203 214 208 147 183 174 179 181 191 203 193 189 187 184 183 186 184 190 191 175 168 178 181 190 186 190 199 181 166 193
135 258 167 144 142 131 132 137 84 133 149 345 12 182 265 327 316 265 313 323 290 296 267 264 270 268 261 251 258 255 252 265 268 264 264 263 254 250 250 218 214 214 222 193 192 194 187 179 179 181 183 186 180 176 170 170 171 179 185 190 191 192 199 212 208 205 203 209 206 207 196 162 178 182 179 190 186 196 182 178 186 199 199 198 191 181 179 185 184 183 181 186 194 184 162 182 192
218 252 131 117 121 142 169 142 131 162 263 275 52 109 184 306 284 269 280 293 289 305 282 267 264 276 260 258 258 259 261 250 249 258 255 249 256 230 239 226 212 218 196 181 188 180 182 179 177 182 181 180 181 171 175 183 182 185 190 198 199 200 204 204 193 197 184 160 178 199 177 180 175 185 188 187 190 191 196 191 187 190 189 191 185 199 203 196 183 188 187 191 182 188 186 192 192
222 220 156 141 149 150 125 110 115 152 113 258 333 339 277 252 267 305 351 311 292 279 269 262 284 279 273 278 272 267 261 253 243 260 264 235 229 246 250 252 231 203 189 186 184 180 174 169 170 168 176 176 179 179 181 191 191 186 190 192 200 212 205 195 155 152 172 170 189 185 194 193 185 182 184 184 195 202 196 200 194 193 191 188 184 198 202 191 194 189 180 181 189 190 192 200 183
249 117 88 91 81 73 107 100 97 351 85 263 215 14 219 276 271 320 339 266 276 261 254 266 268 266 281 296 302 295 288 275 257 250 265 267 245 244 241 257 249 205 185 166 154 152 158 158 165 170 181 183 178 180 184 188 190 181 188 195 201 202 186 166 154 164 173 174 191 198 199 200 206 203 188 197 194 205 210 205 203 198 198 195 187 189 194 191 192 197 198 201 202 202 193 195 197
132 125 94 52 43 34 30 65 85 71 328 253 255 309 158 301 264 221 165 215 201 243 297 298 294 301 284 261 269 296 306 309 295 287 268 264 268 252 257 192 179 102 138 150 152 160 159 164 168 176 184 173 171 181 181 188 189 187 194 196 200 201 194 182 175 179 175 178 193 198 203 213 198 214 199 206 201 197 209 207 212 210 202 199 197 198 201 191 192 197 202 202 204 208 205 202 213
124 117 130 86 9 6 28 344 30 126 261 263 288 262 350 190 292 278 243 276 234 189 204 200 276 286 281 295 299 296 301 297 300 310 320 322 9 46 76 95 116 138 124 141 153 154 161 167 168 174 172 176 175 178 184 190 189 196 202 199 202 204 190 189 197 200 190 197 191 198 202 198 212 215 211 210 209 214 209 224 221 217 207 198 197 196 202 202 198 196 199 203 208 207 207 203 210
92 96 103 115 218 37 264 6 240 210 200 265 333 202 7 240 226 255 292 272 254 222 217 223 233 277 288 288 306 311 306 309 310 313 319 325 342 326 98 117 119 150 163 161 162 162 164 165 174 176 188 177 182 178 190 192 192 199 201 203 207 199 199 199 203 208 196 197 189 195 186 205 196 205 209 208 213 209 207 222 220 218 213 204 198 198 201 197 197 199 201 205 207 207 204 202 207
115 140 141 107 109 93 205 266 293 317 288 272 308 282 269 261 284 244 246 249 223 223 229 237 236 248 267 285 313 320 312 299 289 290 291 286 283 278 260 214 184 179 172 168 161 162 169 173 178 189 192 177 178 183 194 195 204 207 206 207 206 195 204 200 207 207 202 199 189 200 199 198 198 202 198 208 203 204 205 214 217 218 215 205 199 200 198 198 197 200 203 204 207 209 204 208 212
208 27 149 174 148 156 196 186 182 211 196 282 278 79 232 118 254 262 234 258 249 264 256 259 264 259 269 289 293 289 291 296 272 274 263 265 271 244 239 228 207 194 181 175 175 174 167 179 183 196 190 188 182 193 192 202 210 214 213 214 208 199 205 201 211 209 202 197 200 206 207 203 203 204 203 204 196 200 205 210 214 217 211 209 202 203 203 202 202 205 208 211 213 209 212 214 218
267 168 73 102 211 138 135 207 145 157 133 51 252 216 192 179 274 276 255 278 279 260 268 277 269 266 293 300 295 292 296 283 277 271 279 264 244 235 215 218 216 191 192 185 183 180 181 194 194 202 202 188 188 189 200 205 213 213 219 215 215 207 211 213 220 210 216 208 207 206 210 205 210 203 205 196 204 197 203 208 204 214 210 208 204 203 201 201 202 206 211 211 215 203 209 212 217
222 101 183 208 113 100 105 53 30 100 51 254 160 312 288 297 316 278 354 324 280 232 256 226 260 272 308 270 288 287 274 271 250 236 252 270 293 293 264 221 193 200 195 195 194 191 193 186 193 205 205 186 190 195 199 203 208 210 220 222 223 217 215 215 215 213 212 214 215 215 213 212 203 204 205 201 203 202 206 208 204 213 214 209 207 206 204 204 203 207 211 209 214 204 208 215 216
99 167 224 190 149 126 129 175 350 63 166 259 90 227 294 25 283 324 335 267 265 240 242 240 263 287 258 248 264 254 255 262 265 236 223 233 243 258 275 278 236 211 205 203 202 199 199 195 196 200 197 202 205 198 203 201 204 207 208 211 217 219 223 226 223 222 215 218 221 224 220 216 207 207 205 203 204 205 213 215 214 211 211 212 211 205 205 206 206 213 214 215 215 205 211 219 219
145 195 194 116 202 226 306 95 203 152 249 267 298 279 260 193 243 336 254 211 253 243 207 208 220 230 234 251 260 265 274 290 305 299 165 183 209 226 238 244 249 232 225 214 206 193 201 208 209 205 209 210 204 201 206 215 211 210 208 210 210 216 224 231 233 232 225 225 227 224 224 225 214 208 210 207 209 215 215 221 223 222 213 215 213 211 203 208 207 216 214 217 214 207 212 219 220
28 66 84 308 100 163 120 203 169 122 239 72 288 47 247 195 220 194 237 225 226 231 165 220 218 209 217 229 232 233 235 286 282 290 298 156 179 201 213 221 232 226 216 215 204 187 200 206 199 215 227 213 200 194 198 209 207 209 217 214 214 212 212 218 221 225 234 234 232 221 219 222 222 203 210 213 216 215 215 221 222 220 219 217 216 215 208 209 212 219 215 215 213 206 214 220 223
60 84 195 105 14 225 101 24 117 182 172 183 211 301 271 255 213 185 217 221 215 198 205 217 225 226 224 219 188 204 225 228 186 302 310 328 337 186 211 229 233 238 229 214 202 204 207 189 201 207 207 209 208 208 200 212 201 212 215 220 220 212 214 207 211 209 220 225 220 215 214 217 206 217 204 214 214 215 217 221 222 221 218 216 215 218 213 214 218 221 220 217 213 210 215 224 221
179 162 188 176 119 128 161 239 38 95 110 216 133 251 268 269 178 206 218 234 218 230 200 226 237 224 210 213 232 208 175 237 251 294 309 320 323 326 311 239 238 185 232 233 224 222 218 207 212 206 202 209 204 208 206 209 208 211 215 221 221 218 214 218 224 225 227 228 220 217 214 207 217 222 204 216 217 216 217 221 224 223 220 221 217 218 213 215 224 224 224 218 218 213 218 224 219